South Lake Tahoe, CA

11:44 PM PDT on June 24, 2017 (GMT -0700)
Lake Tahoe

Weather History for KTVL - April, 2014

Change the Weather History Date:

Sunday, April 6, 2014

  Actual Average Record
Temperature  
Mean Temperature 44 °F 38 °F  
Max Temperature 59 °F 52 °F 68 °F (1988)
Min Temperature 28 °F 25 °F -1 °F (1975)
Degree Days  
Heating Degree Days 21 27  
Month to date heating degree days 146 162  
Since 1 July heating degree days 5546 6314  
Cooling Degree Days 0 0  
Month to date cooling degree days 0 0  
Year to date cooling degree days 0 0  
Moisture  
Dew Point 26 °F    
Average Humidity 54    
Maximum Humidity 78    
Minimum Humidity 30    
Precipitation  
Precipitation 0.00 in - 1.47 in (1963)
Month to date precipitation 0.05  
Year to date precipitation 10.39  
Sea Level Pressure  
Sea Level Pressure 30.25 in    
Wind  
Wind Speed 4 mph (SSW)    
Max Wind Speed 17 mph    
Max Gust Speed 23 mph    
Visibility 10 miles    
Events      
T = Trace of Precipitation, MM = Missing Value Source: NWS Daily Summary

Daily Weather History Graph

Daily Weather History Graph

Search for Another Location

Airport or City:

Trip Planner

Search our weather history database for the weather conditions in past years. The results will help you decide how hot, cold, wet, or windy it might be!

Date:

Astronomy

Apr. 06, 2014 Rise Set
Actual Time 6:36 AM PDT 7:28 PM PDT
Civil Twilight 6:09 AM PDT 7:55 PM PDT
Nautical Twilight 5:37 AM PDT 8:27 PM PDT
Astronomical Twilight 5:04 AM PDT 9:01 PM PDT
Moon 11:44 AM PDT (4/6) 1:26 AM PDT (4/6)
Length of Visible Light 13h 45m
Length of Day
12h 51m
Waxing Crescent, 45% of the Moon is Illuminated
Apr 6
Waxing Crescent
Apr 7
First Quarter
Apr 15
Full
Apr 22
Last Quarter
Apr 28
New

Hourly Weather History & Observations

Time (PDT) Temp. Windchill Dew Point Humidity Pressure Visibility Wind Dir Wind Speed Gust Speed Precip Events Conditions
12:53 AM 30.0 °F 24.1 °F 24.1 °F 79% 30.22 in 10.0 mi SSW 5.8 mph - N/A   Clear
1:53 AM 30.0 °F 25.2 °F 24.1 °F 79% 30.21 in 10.0 mi SSW 4.6 mph - N/A   Clear
2:53 AM 28.9 °F 25.2 °F 23.0 °F 78% 30.21 in 10.0 mi SSW 3.5 mph - N/A   Clear
3:53 AM 28.9 °F 22.8 °F 23.0 °F 78% 30.21 in 10.0 mi South 5.8 mph - N/A   Clear
4:53 AM 28.9 °F 25.2 °F 23.0 °F 78% 30.22 in 10.0 mi SW 3.5 mph - N/A   Clear
5:53 AM 28.0 °F 24.2 °F 21.9 °F 78% 30.23 in 10.0 mi SSW 3.5 mph - N/A   Clear
6:53 AM 28.0 °F - 21.9 °F 78% 30.27 in 10.0 mi Calm Calm - N/A   Clear
7:53 AM 30.0 °F 26.5 °F 24.1 °F 79% 30.30 in 10.0 mi South 3.5 mph - N/A   Clear
8:53 AM 39.0 °F - 26.1 °F 60% 30.29 in 10.0 mi Calm Calm - N/A   Clear
9:53 AM 48.0 °F - 28.9 °F 48% 30.27 in 10.0 mi NNE 10.4 mph 18.4 mph N/A   Clear
10:53 AM 48.9 °F - 28.9 °F 46% 30.27 in 10.0 mi Variable 3.5 mph - N/A   Clear
11:53 AM 53.1 °F - 28.0 °F 38% 30.25 in 10.0 mi NNE 12.7 mph 21.9 mph N/A   Clear
12:53 PM 54.0 °F - 27.0 °F 35% 30.25 in 10.0 mi North - - N/A   Clear
1:53 PM 55.9 °F - 28.0 °F 34% 30.25 in 10.0 mi Variable 4.6 mph - N/A   Clear
2:53 PM 57.0 °F - 27.0 °F 32% 30.24 in 10.0 mi NNE 9.2 mph - N/A   Clear
3:53 PM 57.9 °F - 27.0 °F 31% 30.22 in 10.0 mi NNE 6.9 mph - N/A   Clear
4:53 PM 57.9 °F - 27.0 °F 31% 30.21 in 10.0 mi Variable 3.5 mph - N/A   Clear
5:53 PM 55.9 °F - 24.1 °F 29% 30.22 in 10.0 mi North 3.5 mph - N/A   Clear
6:53 PM 51.1 °F - 27.0 °F 39% 30.24 in 10.0 mi Calm Calm - N/A   Clear
7:53 PM 45.0 °F - 30.0 °F 56% 30.26 in 10.0 mi Calm Calm - N/A   Clear
8:53 PM 42.1 °F - 28.0 °F 58% 30.26 in 10.0 mi Calm Calm - N/A   Clear
9:53 PM 39.0 °F 36.8 °F 28.0 °F 65% 30.27 in 10.0 mi South 3.5 mph - N/A   Clear
10:53 PM 36.0 °F 33.3 °F 27.0 °F 70% 30.28 in 10.0 mi South 3.5 mph - N/A   Clear
11:53 PM 34.0 °F - 26.1 °F 73% 30.28 in 10.0 mi Calm Calm - N/A   Clear